Powrót do katalogu

STARLINK-34142

AktywnyŁącznośćVLEO
NORAD 63957·PAYLOAD·🇺🇸 United States

Wystrzelony May 13, 2025 z Cape Canaveral Space Force Station

Loading…

Następne Przeloty (najbliższe 24 godziny)

TLE

ŚwieżeSource: CelesTrak SupGP

Epoka: Sep 14, 2026, 21:31 UTC

1 63957C 25099F   26257.89701389  .00000935  00000+0  33899-4 0  2571
2 63957  43.0015 187.8859 0001063 263.3750 351.9097 15.27562381    12

Śledź STARLINK-34142 w czasie rzeczywistym z AllMySat

Download on the App Store